Location: Home
(42.5358°N, 72.7383°W)
Time: 09:59:34
(UTC-04:00)

A-11 Canister half - Pass Details

Date: 29 June 2022
Orbit: 1514 x 1685 km, 47.2° (Epoch: 15 August)

Event Time Altitude Azimuth Distance (km) Brightness Sun altitude
Rises 02:15:40 0° 273° (W) 4,931 11.5 -21.6°
Reaches altitude 10° 02:18:54 10° 276° (W) 3,932 11.0 -21.4°
Maximum altitude 02:28:58 67° 359° (N) 1,752 9.4 -20.7°
Drops below altitude 10° 02:38:42 10° 82° (E) 3,813 11.5 -20.0°
Sets 02:41:48 0° 85° (E) 4,775 12.0 -19.7°
